WS6A-13 Weather Reports


time (UTC)temp
C
wind
direction
speed
KPH
gust
KPH
rain 1hr
cm
rain 24hr
cm
rain mn
cm
humidity
%
barometer
mb
20260507104504 3 96 0.0 0.0 0.00 0.03 0.00 91 1014.0
20260507103009 3 61 0.0 0.0 0.00 0.03 0.00 90 1013.9
20260507094503 4 61 0.0 0.0 0.00 0.03 0.00 91 1013.9
20260507093003 5 61 0.0 0.0 0.00 0.03 0.00 91 1013.8
20260507091504 5 61 0.0 0.0 0.00 0.03 0.00 91 1013.7
20260507084503 5 61 0.0 0.0 0.00 0.03 0.00 91 1013.5
20260507083004 5 61 0.0 0.0 0.00 0.03 0.00 90 1013.4
20260507081504 5 61 0.0 0.0 0.00 0.03 0.00 90 1013.3
20260507074503 5 61 0.0 0.0 0.00 0.10 0.00 90 1013.3
20260507073004 5 61 0.0 0.0 0.00 0.13 0.00 90 1013.4
20260507071504 6 61 0.0 0.0 0.00 0.23 0.00 90 1013.5
20260507064504 6 61 0.0 0.0 0.00 0.30 0.00 89 1013.5
20260507063004 6 61 0.0 0.0 0.00 0.33 0.00 89 1013.5
20260507061504 6 61 0.0 0.0 0.00 0.36 0.00 88 1013.5
20260507054504 7 61 0.0 0.0 0.00 0.51 0.00 88 1013.7
20260507053004 7 61 0.0 0.0 0.00 0.58 0.00 87 1013.6
20260507051504 7 61 0.0 0.0 0.00 0.74 0.00 87 1013.7
20260507050023 7 61 0.0 0.0 0.00 1.02 0.00 87 1014.0
20260507044504 7 61 0.0 0.0 0.00 1.09 0.00 87 1013.8
20260507043003 7 61 0.0 0.0 0.00 1.22 0.00 87 1013.7
20260507041504 7 61 0.0 0.0 0.00 1.35 0.00 87 1013.7
20260507040020 7 61 0.0 0.0 0.00 1.37 0.00 87 1013.5
20260507034504 7 61 0.0 0.0 0.00 1.37 1.37 86 1013.6
20260507033004 7 61 0.0 0.0 0.00 1.40 1.37 85 1013.6
20260507031503 8 61 0.0 0.0 0.00 1.40 1.37 84 1013.7
20260507030017 8 61 0.0 0.0 0.00 1.42 1.37 83 1013.8
20260507024504 8 61 0.0 0.0 0.00 1.45 1.37 81 1013.8
20260507023004 8 61 0.0 0.0 0.00 1.52 1.37 82 1013.8
20260507021504 9 61 0.0 0.0 0.00 1.68 1.37 81 1013.7
20260507014511 10 61 0.0 0.0 0.00 1.83 1.37 79 1013.2
20260507013004 10 61 0.0 0.0 0.00 1.85 1.37 78 1013.0
20260507011504 10 61 0.0 0.0 0.00 1.96 1.37 78 1013.0
20260507010012 11 61 0.0 0.0 0.00 2.11 1.37 78 1013.0
20260507004504 11 61 0.0 0.0 0.00 2.18 1.37 74 1012.9
20260507003004 11 61 0.0 0.0 0.00 2.21 1.37 73 1012.7
20260507001504 12 61 0.0 0.0 0.00 2.26 1.37 72 1012.5
20260507000010 12 61 0.0 0.0 0.00 2.29 1.37 67 1012.3
20260506234504 13 61 0.0 0.0 0.00 2.31 1.37 65 1012.4
20260506233004 13 61 0.0 0.0 0.00 2.31 1.37 62 1012.1
20260506231504 13 39 0.0 4.8 0.00 2.34 1.37 62 1012.2
20260506223004 13 51 0.0 0.0 0.00 2.36 1.37 62 1012.5
20260506220005 13 61 0.0 4.8 0.00 2.44 1.37 62 1012.6
20260506214504 13 243 0.0 4.8 0.00 2.44 1.37 60 1012.5
20260506213004 13 245 0.0 3.2 0.00 2.46 1.37 61 1012.3
20260506211504 13 51 0.0 4.8 0.00 2.46 1.37 63 1012.1
20260506204503 13 68 1.6 4.8 0.00 2.49 1.37 64 1011.9
20260506203004 13 33 0.0 4.8 0.00 2.54 1.37 60 1012.1
20260506201504 14 286 0.0 8.0 0.00 2.59 1.37 62 1012.1
20260506200004 14 51 0.0 4.8 0.00 2.67 1.37 60 1011.9
20260506193004 15 239 0.0 11.3 0.00 3.61 1.37 61 1011.6
20260506191504 15 55 0.0 9.7 0.00 3.61 1.37 59 1011.7
20260506190004 15 65 1.6 4.8 0.00 3.61 1.37 59 1011.8
20260506183003 15 232 0.0 11.3 0.00 3.61 1.37 60 1011.5
20260506181504 15 51 1.6 8.0 0.00 3.61 1.37 59 1011.5
20260506174504 15 251 0.0 9.7 0.00 3.61 1.37 61 1011.8
20260506171504 15 70 1.6 9.7 0.00 3.61 1.37 59 1011.9
20260506170004 14 17 0.0 8.0 0.00 3.61 1.37 60 1012.0
20260506164503 14 70 0.0 4.8 0.00 3.61 1.37 63 1012.1
20260506163004 14 48 0.0 4.8 0.00 3.61 1.37 60 1012.0
20260506161504 13 52 0.0 9.7 0.00 3.61 1.37 68 1011.8
20260506160004 13 49 0.0 11.3 0.00 3.61 1.37 67 1011.8
20260506154504 12 53 0.0 4.8 0.00 3.61 1.37 66 1012.2
20260506153004 12 38 0.0 4.8 0.00 3.61 1.37 69 1012.1
20260506151504 12 42 0.0 11.3 0.00 3.61 1.37 71 1011.5
20260506150004 12 46 0.0 11.3 0.03 3.61 1.37 73 1011.0
20260506144503 11 72 0.0 4.8 0.03 3.61 1.37 77 1011.0
20260506143003 10 41 0.0 4.8 0.03 3.61 1.37 77 1010.8
20260506141504 10 51 0.0 8.0 0.03 3.61 1.37 82 1010.8
20260506134504 9 59 0.0 4.8 0.00 3.58 1.35 87 1010.9
20260506131504 8 41 0.0 4.8 0.00 3.58 1.35 88 1010.5
20260506130005 8 43 0.0 4.8 0.00 3.58 1.35 89 1010.3
20260506124503 8 55 0.0 3.2 0.00 3.58 1.35 90 1009.8
20260506121503 7 358 0.0 4.8 0.00 3.58 1.35 92 1009.9
20260506120004 7 65 0.0 4.8 0.00 3.58 1.35 93 1009.4
20260506114504 7 39 0.0 0.0 0.00 3.61 1.35 93 1008.7
20260506113004 7 42 0.0 1.6 0.00 3.61 1.35 93 1008.4
20260506111504 7 48 0.0 1.6 0.00 3.61 1.35 94 1008.6
20260506110004 7 48 0.0 0.0 0.00 3.61 1.35 94 1008.3